Location: Stara Lesna
(49.1528°N, 20.2911°E)
Time: 03:07:04
(UTC+02:00)

Meteor 2-3 Rocket - Pass Details

Date: 13 July 2020
Orbit: 843 x 884 km, 81.2° (Epoch: 11 August)

Event Time Altitude Azimuth Distance (km) Brightness Sun altitude
Exits shadow 00:23:49 20° 222° (SW) 1,882 5.1 -18.9°
Maximum altitude 00:27:31 48° 288° (WNW) 1,130 4.5 -18.9°
Drops below altitude 10° 00:33:05 10° 3° (N) 2,537 7.4 -19.0°
Sets 00:35:39 0° 9° (N) 3,485 8.4 -19.0°
